GFSCGP_500_rhum_330.txt.gz
RH
100 100 81 39 31 34 43 60 67 74 65 60 46 33 34 45 53 49 34 25 16 10 9 9 12 11 10 9 10 10 10 11 12 14 14 14 15 15 15 15 15 14 14 14
100 86 36 27 33 72 86 84 88 87 74 65 52 48 40 43 47 53 40 27 21 12 9 9 11 11 12 11 10 8 9 9 10 10 10 10 10 14 15 17 18 19 20 20
80 55 74 27 59 76 83 82 86 86 79 74 69 54 37 38 41 55 44 40 26 20 10 9 11 12 12 12 12 10 8 9 8 8 8 8 8 10 11 11 11 12 14 18
99 56 51 20 48 65 83 83 92 84 90 71 68 60 43 34 35 47 42 43 26 20 12 9 13 14 13 13 13 11 7 8 8 7 8 8 9 9 9 10 11 11 11 14
100 66 81 51 46 74 92 72 89 97 99 99 69 56 42 35 32 43 38 37 31 21 14 10 13 14 14 13 13 13 9 7 7 7 7 8 9 9 9 10 10 10 9 10
60 72 71 61 82 100 100 89 92 100 100 99 82 64 34 26 26 36 45 33 31 21 18 11 11 14 14 13 13 13 12 10 7 6 7 7 8 9 10 10 10 10 9 9
96 78 58 100 100 100 96 99 96 100 100 87 82 73 44 34 27 28 39 41 30 21 21 18 13 12 14 13 13 13 13 12 10 6 5 7 8 9 9 10 10 10 10 8
92 83 100 93 97 86 81 64 75 63 56 63 78 69 44 35 34 24 26 49 43 24 20 22 20 17 16 16 15 13 13 13 12 9 6 7 8 9 9 10 10 10 10 9
96 98 77 71 78 99 100 99 87 82 71 63 76 64 54 44 32 25 21 33 46 34 21 20 20 19 18 17 16 15 14 14 13 12 8 7 8 8 9 9 8 9 11 11
75 86 82 72 85 96 100 100 99 91 94 75 72 76 53 38 31 24 19 21 43 45 41 30 20 18 17 17 17 16 15 15 14 13 11 8 7 8 8 8 10 10 10 11
72 86 76 74 56 87 99 87 97 100 94 86 77 71 77 42 31 22 17 16 25 44 37 29 19 18 18 17 16 16 16 15 15 14 12 9 8 9 9 8 9 11 10 11
69 74 73 81 92 97 82 80 86 94 86 84 83 71 74 43 32 25 18 15 17 30 42 32 28 19 17 17 18 18 17 16 15 14 12 11 9 8 8 8 9 10 11 11
51 49 50 74 79 72 62 78 82 87 98 98 92 72 72 75 37 25 17 16 17 19 33 42 39 32 22 18 16 16 15 14 13 14 13 12 11 8 8 9 10 10 11 11
69 59 54 40 40 56 47 52 62 81 90 90 92 82 72 84 46 25 18 16 17 19 21 28 41 43 41 32 24 19 17 16 14 12 11 10 10 9 8 8 10 11 11 11
90 74 70 65 66 65 63 78 75 76 74 88 86 85 71 44 90 33 20 18 18 18 19 20 24 32 42 44 37 33 28 24 20 18 15 12 11 11 11 10 12 13 13 13
56 84 87 75 59 71 75 80 100 100 100 96 90 87 78 50 42 35 27 23 18 17 17 17 17 18 19 20 26 37 40 36 31 27 22 18 17 15 13 13 15 17 16 15
71 80 88 93 86 95 97 76 86 94 87 81 80 88 85 68 46 43 45 35 28 22 22 20 17 17 18 20 21 19 21 32 38 39 39 35 30 22 18 16 15 17 18 21
100 100 100 100 99 98 75 96 86 84 100 89 78 86 96 96 88 78 59 43 36 42 33 22 22 22 21 20 20 23 24 22 21 23 35 40 41 39 36 30 22 19 20 22
94 95 89 83 80 69 58 62 64 81 87 90 93 95 97 100 98 94 88 80 68 49 51 42 25 20 19 20 22 22 22 24 25 24 23 32 40 42 42 40 37 34 30 26
98 100 100 100 93 79 56 52 51 55 78 87 92 98 100 100 100 98 93 91 83 78 72 64 49 39 73 43 24 22 21 22 25 26 27 29 31 34 38 40 40 40 38 36
23 59 100 100 99 100 93 74 100 100 90 100 100 100 100 100 100 100 100 100 100 100 100 92 75 59 47 54 75 37 31 25 20 21 24 25 25 26 30 33 34 34 32 30
18 11 21 75 91 87 92 98 82 92 100 100 100 96 98 99 100 100 100 98 100 100 99 97 99 89 78 56 48 53 52 41 36 31 26 21 22 23 22 22 23 24 24 23
15 17 19 12 14 49 76 91 98 99 98 100 100 100 100 100 100 100 95 96 98 100 100 100 100 100 96 89 79 64 50 47 50 58 56 53 39 29 30 30 28 25 24 24
18 20 13 13 16 13 10 36 71 88 89 89 87 85 86 96 99 92 94 98 100 94 79 76 80 92 100 97 95 99 100 75 69 70 70 76 85 80 53 43 44 40 35 33
18 18 20 16 14 16 17 16 13 20 47 83 96 100 100 100 94 86 75 70 77 91 88 88 90 92 92 94 94 92 82 82 92 96 98 98 94 89 91 81 71 62 53 48
39 28 21 17 18 16 18 19 19 19 20 15 17 34 61 96 100 100 98 89 86 78 69 70 73 68 61 62 69 70 67 60 51 45 42 44 55 75 89 91 89 85 78 71

GFSCGP_500_rhum_333.txt.gz
RH
96 100 83 24 12 8 12 49 68 68 66 69 73 47 42 53 72 65 52 29 26 16 12 10 10 10 9 10 10 10 11 12 13 13 13 13 13 13 13 13 14 15 16 16
100 100 84 41 17 11 39 90 84 75 76 79 81 45 38 49 46 64 65 32 28 16 9 10 11 11 11 13 13 13 13 14 14 14 15 14 14 14 15 15 15 15 16 16
78 76 43 47 32 33 58 100 83 78 84 88 86 60 44 58 62 71 82 60 39 24 9 9 10 11 11 11 12 12 13 15 14 14 15 16 16 16 16 16 17 18 19 20
97 64 44 30 56 29 41 100 93 88 91 82 83 56 52 47 60 66 74 62 58 28 13 9 10 13 14 14 12 12 10 11 11 10 10 12 13 13 13 14 14 13 14 15
97 100 81 60 48 29 71 100 98 94 100 97 82 65 46 45 49 55 57 56 47 31 19 11 11 12 15 14 13 12 11 8 9 9 8 8 9 10 10 11 11 12 10 10
73 84 100 68 50 65 99 100 100 100 100 100 92 66 47 31 34 46 46 59 53 46 26 14 11 11 14 14 13 13 13 10 8 9 8 8 9 10 10 11 11 11 11 10
84 78 75 63 72 100 99 100 99 100 100 95 92 89 58 50 34 34 37 46 54 59 34 24 14 10 12 13 13 14 14 14 13 8 8 7 8 9 10 11 11 12 12 11
65 57 68 75 98 88 97 100 93 75 59 55 73 70 47 56 50 42 46 41 38 54 45 26 24 15 14 14 15 14 14 14 14 13 10 8 8 9 9 9 10 10 11 10
60 69 95 100 97 100 91 85 88 83 64 57 62 65 70 63 50 40 41 38 32 49 51 42 27 24 21 16 15 15 15 14 14 14 13 11 7 8 9 9 9 9 10 10
79 64 58 64 89 77 75 73 67 73 85 78 64 60 59 68 51 34 35 30 35 33 50 47 32 24 23 20 16 14 14 14 14 13 13 13 11 8 7 7 8 8 9 9
86 80 68 54 66 62 74 74 67 67 60 52 55 53 52 56 62 43 34 32 29 24 44 43 36 25 22 22 18 14 12 13 13 13 14 14 13 12 10 7 7 7 7 7
93 98 97 84 79 68 71 69 54 72 47 34 38 45 55 54 62 63 40 32 30 24 22 48 44 33 23 21 21 19 15 13 11 12 12 12 12 11 12 12 8 8 8 8
64 82 87 79 82 67 68 75 70 50 48 57 55 42 55 51 62 80 73 47 31 25 20 19 44 48 44 28 21 20 20 19 18 16 16 15 15 13 12 12 13 9 8 8
67 70 70 65 59 88 66 73 68 77 74 64 63 56 57 51 61 64 77 80 43 29 24 18 17 38 49 40 32 23 19 18 17 16 16 16 15 14 14 13 11 10 10 10
81 80 62 55 60 85 82 72 60 53 71 83 76 71 73 70 65 66 79 87 54 32 24 18 16 17 27 48 46 36 32 27 23 20 18 16 15 14 14 12 11 12 12 12
75 74 76 66 77 78 71 72 75 78 90 70 57 71 76 82 80 75 74 77 58 32 24 19 17 16 18 32 30 43 45 39 42 37 32 29 23 18 15 14 14 14 14 15
56 52 55 65 77 75 85 69 81 79 72 62 51 52 77 82 87 86 77 55 85 42 23 20 19 19 19 21 57 49 30 36 45 45 43 40 35 31 27 22 18 17 15 15
56 62 61 53 60 60 38 55 68 74 74 76 62 56 61 73 90 88 69 51 60 72 50 24 21 20 21 21 21 21 24 25 23 24 29 40 44 44 43 36 31 26 23 20
47 76 66 65 52 57 51 63 77 75 78 73 73 82 83 80 92 100 81 73 68 61 53 39 30 26 27 30 28 24 21 20 20 20 21 22 22 25 34 43 42 40 35 31
12 90 100 100 100 98 77 88 85 88 85 93 87 82 89 91 82 92 100 96 75 66 67 65 58 53 46 42 31 26 25 26 24 23 23 23 25 25 25 25 24 25 35 40
10 12 51 99 96 90 79 76 80 76 66 62 60 68 75 93 100 99 100 100 100 99 99 96 85 66 55 48 46 77 58 27 23 22 22 22 23 24 26 27 28 28 29 32
18 12 12 11 26 55 94 100 98 77 66 67 60 64 76 92 96 89 92 94 97 100 98 99 100 100 96 96 96 90 84 81 66 50 54 35 29 28 26 26 27 26 26 27
18 18 16 14 15 14 60 94 100 100 100 99 94 100 99 99 100 99 94 94 99 100 100 100 100 100 96 95 95 100 98 94 90 68 67 71 82 68 52 32 28 27 25 23
31 22 20 21 20 15 16 14 34 77 92 89 87 92 92 79 64 89 100 100 100 100 95 100 100 100 100 100 100 100 100 100 94 86 79 74 77 69 62 66 60 51 48 45
51 40 31 24 20 24 21 14 14 14 13 32 64 80 86 88 91 100 100 100 100 100 100 99 94 93 89 90 92 88 88 94 97 97 100 100 100 97 94 84 67 68 70 68
48 49 41 38 35 24 21 23 23 20 14 14 16 16 16 23 49 76 81 91 95 92 90 82 74 73 72 75 80 84 90 92 90 93 98 100 100 100 97 89 94 97 95 95

GFSCGP_500_rhum_336.txt.gz
RH
100 98 100 51 27 25 18 10 48 82 70 63 78 64 55 70 80 83 87 58 40 24 26 22 18 16 15 12 13 11 12 12 13 14 18 21 23 22 22 22 24 25 26 27
88 100 100 62 28 26 16 17 69 86 79 78 82 66 62 69 80 95 98 75 48 29 20 18 13 11 12 13 12 11 12 12 12 13 14 16 17 16 16 18 19 18 18 17
83 88 70 58 50 27 17 16 73 78 80 87 99 82 67 70 97 98 91 89 51 35 23 17 13 10 10 11 12 12 12 13 13 13 14 14 15 16 16 15 15 15 16 17
92 99 96 70 31 32 15 50 96 85 91 87 94 70 62 69 90 97 87 89 68 35 28 16 12 11 11 14 15 15 15 16 16 16 16 15 16 16 15 16 16 17 18 19
79 52 75 80 31 22 17 47 97 94 100 99 97 85 59 56 65 89 90 84 84 52 33 20 13 12 12 14 14 13 14 16 17 18 18 16 16 17 16 16 16 15 14 14
68 97 90 72 39 24 28 96 100 100 100 100 100 90 63 45 50 68 68 92 91 71 42 30 19 12 12 14 14 12 12 12 12 14 14 13 12 11 12 12 12 11 11 11
75 94 74 88 50 36 76 100 100 100 100 97 93 91 70 53 54 61 75 88 99 79 77 36 32 18 13 14 15 14 12 13 12 10 11 10 9 9 10 10 10 11 10 10
49 99 100 100 98 62 75 100 90 68 76 68 79 64 60 60 51 51 63 93 89 86 75 74 38 31 24 16 16 16 15 14 14 13 11 9 9 8 9 10 10 11 11 11
72 73 81 79 67 98 96 94 65 71 70 64 71 61 61 62 54 54 52 60 82 73 68 64 54 38 28 18 15 15 16 15 15 15 14 12 10 8 9 9 10 10 10 10
48 52 64 62 57 63 69 66 77 71 92 84 60 64 49 50 50 44 44 45 47 66 63 59 57 35 29 26 16 14 14 15 15 15 14 14 13 12 9 7 8 8 8 8
89 76 49 65 64 46 54 54 75 77 77 67 62 53 55 56 62 62 49 46 43 40 60 43 50 50 31 27 25 16 14 15 15 14 14 13 12 13 12 10 8 7 7 8
86 82 88 61 51 58 53 46 43 45 43 53 56 49 50 51 51 55 83 64 50 43 41 50 38 48 47 32 26 24 20 16 14 14 14 14 13 12 11 12 12 11 10 9
59 70 77 85 65 48 37 32 32 33 34 31 35 37 43 45 47 47 52 68 72 52 38 39 46 27 40 51 38 27 24 23 21 17 15 15 16 15 13 13 14 13 13 12
53 67 86 80 83 78 66 56 47 40 35 18 16 16 23 24 18 32 44 49 64 67 52 37 38 48 25 32 54 50 40 29 23 21 20 19 18 17 17 16 15 15 14 14
57 63 56 63 78 95 89 90 83 82 76 51 24 27 26 25 23 23 25 39 46 60 69 57 49 46 41 21 26 50 57 58 48 37 26 22 20 18 18 17 17 16 16 15
79 71 71 70 74 73 75 98 95 96 85 69 64 53 52 41 34 35 44 54 48 53 64 80 78 56 38 48 21 19 37 59 66 62 57 44 39 30 22 20 18 16 15 15
61 67 70 67 76 63 58 63 85 88 78 63 51 52 58 57 70 68 55 50 61 66 60 74 86 96 61 26 43 24 23 32 50 58 59 56 50 46 45 40 33 24 19 17
72 68 61 56 55 75 57 70 71 65 56 53 50 41 48 60 59 77 88 80 72 78 75 65 69 78 58 73 54 26 24 27 35 41 47 50 52 51 49 48 48 45 41 35
5 19 64 66 58 55 51 55 88 78 63 70 63 64 79 79 70 61 72 91 92 88 84 73 63 55 35 27 31 51 35 25 26 30 42 66 60 32 41 46 47 46 43 41
12 6 4 16 62 65 51 50 53 74 54 58 56 67 79 88 93 95 94 87 94 94 83 61 62 77 84 51 34 32 33 31 27 30 32 33 36 32 33 30 30 29 28 29
28 19 10 6 7 26 49 53 53 58 50 64 68 79 90 95 86 81 82 92 95 100 98 85 69 71 83 84 80 61 48 42 40 40 38 33 32 32 28 28 28 28 28 28
36 30 23 18 12 7 9 29 71 72 68 67 75 86 87 83 71 78 91 89 88 96 100 100 93 81 80 83 82 82 86 79 70 60 52 43 36 32 27 27 28 30 29 28
37 36 33 29 22 19 13 8 7 14 42 66 71 72 74 82 80 65 60 65 73 74 80 89 99 100 98 90 79 72 71 74 84 89 80 72 66 67 66 63 43 47 47 41
34 37 36 39 31 24 20 19 15 10 12 35 61 82 88 75 83 95 94 100 100 87 100 100 100 98 93 94 97 100 100 100 98 97 94 93 90 92 94 95 88 75 64 61
38 34 37 37 44 40 33 24 22 23 18 11 12 15 36 72 91 100 100 99 97 100 100 100 100 100 100 98 85 88 100 100 100 100 100 100 97 99 100 100 99 99 98 92
38 40 38 36 38 44 44 41 36 28 22 22 22 16 12 11 14 26 51 60 62 84 98 98 97 93 90 100 100 100 100 98 94 97 98 95 92 89 92 96 100 99 99 100

GFSCGP_500_rhum_339.txt.gz
RH
48 98 100 98 57 38 35 25 28 59 79 77 75 76 64 80 81 71 93 89 49 41 39 40 18 15 14 13 12 13 12 13 14 15 17 18 18 18 19 20 21 24 26 28
59 98 100 100 46 69 51 22 34 70 91 93 98 80 66 80 96 93 98 97 65 47 37 37 34 16 15 15 14 13 13 14 15 16 17 18 18 19 20 23 25 26 28 27
18 66 62 46 47 65 44 23 33 53 86 88 92 94 82 86 95 89 98 97 90 58 40 32 32 26 17 16 15 15 16 16 16 17 18 19 19 20 22 25 24 21 20 18
100 99 100 100 34 35 30 29 58 66 94 90 100 90 68 86 97 100 88 97 97 71 49 32 27 24 21 19 19 18 16 16 16 15 16 16 16 15 15 15 15 15 16 16
100 83 61 38 51 41 29 33 77 96 100 99 100 100 72 70 81 92 97 98 98 76 77 41 23 21 18 14 14 14 13 13 14 14 14 15 15 15 15 15 16 16 17 17
96 96 86 74 50 32 33 62 84 100 100 100 99 95 76 47 53 70 98 97 96 100 73 43 32 20 17 14 14 12 12 14 15 16 16 16 15 16 15 16 16 16 15 14
100 76 88 77 69 46 60 96 100 100 100 98 96 96 76 71 65 71 97 98 98 96 84 73 39 28 20 16 16 15 15 15 16 17 18 18 17 15 14 12 12 12 11 11
50 49 63 72 66 40 47 68 78 71 72 62 75 79 70 78 67 70 92 92 77 76 90 66 67 38 23 18 16 16 16 14 13 14 14 14 13 12 11 10 10 10 10 10
41 40 52 74 78 48 30 34 42 71 60 64 71 69 70 72 62 61 75 91 94 79 90 81 66 57 33 22 17 16 17 16 15 14 14 12 11 11 11 11 10 10 10 10
33 39 36 34 65 57 44 39 31 46 70 73 62 63 57 58 50 61 64 81 84 82 79 91 80 73 55 32 23 17 16 16 16 14 14 14 13 10 10 10 9 9 10 9
35 41 49 52 57 55 55 46 37 55 42 30 41 46 52 50 55 47 58 76 69 58 66 72 87 74 66 52 30 24 19 17 18 16 15 15 15 14 13 11 10 8 8 8
45 46 49 42 55 55 45 42 43 48 32 29 22 26 51 51 53 60 66 68 80 58 53 57 65 92 70 50 56 33 28 24 19 18 18 17 16 15 15 14 14 13 11 9
40 52 62 96 59 54 41 34 27 35 40 31 30 17 26 50 53 51 56 61 75 84 62 54 51 58 93 66 39 57 43 29 27 24 20 18 17 17 16 15 15 14 14 14
44 51 59 58 72 73 56 43 33 28 33 25 19 18 26 41 48 56 57 59 59 64 83 74 64 51 49 84 80 36 37 55 44 30 25 23 21 19 18 18 17 17 18 16
32 39 54 53 54 55 57 58 54 44 27 25 20 16 25 31 32 34 38 40 50 52 55 77 70 69 59 50 63 88 38 36 64 70 62 49 27 23 21 20 20 19 18 18
32 33 39 44 77 74 66 61 66 68 47 34 24 15 14 13 15 20 22 20 20 21 34 47 56 71 74 68 54 55 78 64 26 39 67 76 71 57 39 27 22 21 20 19
41 43 44 42 58 71 63 68 75 66 66 58 49 49 81 69 47 39 37 26 23 22 20 28 38 46 67 82 74 61 52 74 62 27 30 57 80 89 85 75 61 43 33 25
41 63 62 53 62 64 43 66 67 67 65 66 66 76 79 78 68 63 62 52 45 36 42 58 57 54 52 53 80 82 70 41 58 69 46 30 46 68 87 92 93 87 67 57
8 6 27 67 66 59 56 52 80 74 62 59 64 79 70 64 68 70 73 78 80 80 69 71 66 64 56 57 63 67 75 78 33 40 56 48 31 37 49 60 65 66 66 62
26 22 10 5 8 31 54 61 58 66 64 71 68 62 62 50 43 51 65 73 80 75 82 81 82 85 79 70 65 66 74 78 90 74 46 36 39 44 49 60 70 71 60 54
28 30 29 26 14 7 5 16 54 64 52 65 65 80 84 64 48 46 56 63 68 74 82 91 100 96 87 75 70 62 62 62 52 44 62 74 66 44 37 39 48 52 52 52
28 30 32 33 30 26 13 7 6 19 41 52 55 62 68 73 86 84 74 64 66 68 73 81 90 98 100 100 99 83 75 76 80 89 76 54 40 43 46 47 46 51 48 43
35 35 32 32 36 36 35 24 15 10 7 8 15 40 70 74 71 77 90 100 99 94 92 92 88 87 92 100 100 96 91 95 100 100 100 100 100 95 86 68 60 56 53 45
39 40 35 37 42 42 39 37 35 24 20 16 10 8 13 27 75 93 82 82 83 82 86 86 70 71 81 98 100 100 100 100 99 100 100 100 100 100 98 94 88 84 84 86
48 48 48 38 45 43 38 39 39 41 36 30 24 20 15 10 11 29 53 61 75 81 76 81 92 73 86 99 93 95 100 98 98 99 99 100 100 100 100 100 100 98 98 94
74 56 52 46 44 43 38 37 35 36 42 42 39 36 31 24 22 17 12 14 22 37 58 71 81 89 100 99 100 100 100 100 100 100 99 96 100 97 96 96 99 94 94 95

GFSCGP_500_rhum_342.txt.gz
RH
91 63 52 100 97 81 89 57 38 39 76 80 84 72 54 81 99 84 98 100 93 43 43 50 29 16 20 13 10 9 10 13 15 13 12 14 14 14 14 16 17 17 16 19
28 41 43 62 99 100 93 70 47 41 96 90 84 76 54 81 100 100 100 99 97 56 44 48 25 16 14 13 13 11 11 12 13 15 15 14 12 14 14 14 15 16 18 21
74 88 100 96 92 82 89 70 37 40 84 89 86 81 60 73 99 87 88 90 98 64 44 49 31 22 17 15 14 13 13 14 15 15 15 14 14 16 16 16 17 19 21 24
100 98 100 100 94 79 90 65 43 54 89 94 98 83 62 58 90 97 95 95 98 66 55 46 45 27 21 21 20 19 18 16 14 14 15 16 16 17 19 20 19 20 22 24
100 83 100 98 83 70 74 48 55 77 100 98 100 91 64 63 79 91 100 100 98 98 76 45 40 36 22 20 20 19 19 18 16 17 18 17 17 19 19 20 19 17 15 15
82 77 67 95 93 89 78 51 75 100 100 100 100 86 64 56 78 100 100 98 93 97 89 70 36 34 30 22 18 16 14 15 17 17 18 18 16 15 15 14 14 14 14 15
53 84 78 82 63 57 100 97 98 100 100 97 96 98 86 60 78 99 99 90 96 94 93 77 55 32 27 28 22 18 15 14 14 16 16 16 16 14 14 14 15 15 15 15
56 59 62 49 49 46 59 81 72 72 66 64 82 87 77 63 63 81 92 79 94 98 85 80 72 40 30 27 19 16 14 13 13 13 14 14 14 14 15 15 14 13 12 13
44 42 44 45 41 43 51 55 55 40 50 75 81 87 88 71 64 65 65 59 65 92 97 95 97 94 60 27 21 18 16 15 15 16 16 16 16 16 15 12 11 10 10 10
43 44 42 50 44 34 34 40 44 31 59 62 63 69 67 54 49 56 55 54 51 62 80 95 98 95 95 69 47 24 20 19 18 18 16 14 13 11 11 11 11 10 10 9
24 47 40 42 35 35 32 31 32 32 21 38 50 43 51 64 66 59 54 59 61 59 66 81 97 99 94 89 62 38 26 24 21 20 20 17 14 13 12 11 10 11 11 10
27 31 35 37 39 38 31 25 23 25 24 17 28 31 42 54 59 59 55 53 59 61 59 72 85 95 98 95 76 68 46 31 25 24 23 21 19 16 15 15 15 14 11 10
22 16 19 26 42 46 45 32 26 22 20 22 22 16 18 34 51 56 51 52 56 62 76 87 87 90 77 81 95 71 59 58 41 31 27 24 23 20 18 16 16 16 16 15
26 28 38 31 38 48 51 47 36 33 25 18 20 21 22 17 20 41 55 56 54 56 62 72 86 79 79 63 61 82 83 52 45 54 47 33 28 24 22 20 19 18 17 16
17 17 23 36 44 62 66 54 54 44 34 30 22 20 22 20 18 20 30 41 48 49 49 56 65 74 70 70 64 58 60 74 70 52 66 67 50 34 28 24 23 22 21 20
25 23 29 29 35 40 48 64 68 54 43 29 24 24 27 26 22 21 24 32 38 42 48 46 48 52 57 70 78 70 61 58 62 70 76 68 73 76 61 38 31 26 23 22
28 28 29 28 42 63 43 40 51 51 42 41 37 30 56 45 42 50 46 38 36 39 38 38 40 40 48 52 58 69 69 70 55 55 58 71 66 51 62 79 78 71 52 40
7 22 26 28 36 38 23 42 68 63 54 51 45 34 34 57 62 54 43 34 30 28 28 29 31 32 33 40 53 59 61 61 71 65 56 59 62 70 65 33 38 62 77 79
20 10 7 15 26 26 28 35 50 62 58 73 68 66 61 48 39 50 53 58 57 40 33 28 29 32 31 31 30 38 50 61 64 71 73 67 59 52 64 71 54 29 39 59
30 28 24 17 11 7 6 26 54 64 64 57 60 67 66 67 63 59 73 88 82 76 65 55 47 40 35 34 37 44 54 59 66 74 78 81 83 73 50 52 66 65 58 51
38 36 32 31 29 23 16 8 5 21 42 62 66 78 74 69 65 77 84 82 71 65 73 78 81 86 84 82 73 66 67 72 69 72 78 80 81 73 69 50 40 55 61 62
45 41 38 38 38 33 29 23 14 8 5 15 46 64 66 72 70 60 57 64 72 65 55 51 47 49 52 59 68 73 86 90 85 84 71 70 75 78 78 82 98 84 67 63
81 56 44 40 38 37 36 34 28 22 13 7 7 18 36 63 67 60 56 62 64 63 62 57 52 54 56 59 65 74 77 77 85 92 86 81 77 74 82 78 81 79 80 91
97 98 83 57 46 43 45 39 37 32 26 21 16 12 10 8 7 10 22 48 58 58 57 60 60 62 70 72 76 80 89 93 93 94 97 98 99 100 95 96 100 100 100 100
99 98 100 96 65 50 41 41 39 37 36 34 29 24 22 22 20 15 11 8 13 27 50 78 91 91 98 99 96 92 89 86 79 84 99 100 100 100 100 100 100 100 100 100
94 93 90 90 97 81 57 49 42 39 37 34 32 34 37 33 30 28 26 24 20 15 10 14 27 45 66 77 84 92 87 81 86 96 94 95 99 98 100 100 100 100 100 100

GFSCGP_500_rhum_345.txt.gz
RH
99 85 58 40 55 99 100 84 84 56 39 69 88 91 73 60 53 79 74 99 99 84 63 53 75 51 64 86 79 46 25 13 14 23 28 23 17 13 18 32 38 41 30 26
83 100 85 38 49 79 100 100 94 51 37 93 100 74 76 60 60 92 89 93 97 100 49 44 68 44 53 48 30 24 16 13 21 23 23 15 11 13 13 19 23 22 20 19
52 76 100 75 82 68 82 86 84 42 40 100 92 70 82 68 69 60 94 93 94 96 55 47 76 37 24 33 30 22 15 21 21 21 14 12 13 14 15 15 14 13 14 16
100 100 100 98 96 96 99 100 72 42 53 86 87 75 89 71 63 70 100 79 99 97 78 47 56 27 21 21 21 20 18 20 17 13 13 14 14 14 12 12 13 14 15 17
91 89 78 90 100 100 100 100 73 49 59 86 100 100 83 76 58 67 96 89 88 98 95 58 56 28 22 21 18 16 17 17 14 14 14 14 13 13 13 13 14 14 16 17
72 74 68 94 83 98 98 96 85 98 95 100 100 97 100 73 53 74 90 91 84 94 100 84 55 44 23 23 18 22 17 16 15 17 18 17 16 15 15 16 16 17 17 18
46 58 62 100 77 80 100 100 99 100 99 94 97 93 92 82 73 60 72 78 80 94 98 93 69 64 32 24 23 26 23 19 15 17 18 20 18 17 17 16 17 15 14 13
45 42 54 92 100 90 90 75 89 75 74 58 83 77 94 94 61 51 58 67 74 85 88 97 94 90 60 34 28 24 24 19 16 16 17 16 15 14 14 13 13 13 14 14
44 50 49 56 61 85 88 66 68 58 66 99 80 92 100 89 69 60 68 60 67 70 93 98 90 97 91 41 40 36 28 23 21 21 19 16 15 13 13 13 13 14 14 15
35 28 28 39 59 68 60 93 64 48 63 76 73 71 62 59 49 52 53 53 62 70 81 79 100 98 92 88 60 48 50 31 23 22 21 18 16 14 13 14 14 15 16 16
31 29 26 30 31 37 40 45 55 47 44 47 59 60 56 59 57 53 56 51 51 53 60 77 90 98 97 96 64 47 41 37 26 20 19 20 20 20 17 16 15 14 12 12
16 29 33 33 27 24 25 40 48 49 42 39 38 33 45 61 64 54 48 50 49 48 52 57 79 92 96 99 94 92 67 59 43 27 24 23 24 24 21 17 15 14 15 14
14 20 28 34 30 22 18 20 23 34 41 34 30 24 24 33 50 52 50 55 56 51 54 59 72 91 94 95 96 98 93 82 64 44 32 27 26 25 24 22 19 16 15 16
18 21 28 45 53 40 25 20 23 20 19 21 25 27 22 17 26 39 44 51 55 56 54 59 64 70 81 82 89 93 88 87 89 78 62 47 34 30 26 25 24 22 20 18
17 16 22 20 40 60 74 46 39 28 23 20 16 23 22 20 16 16 30 44 51 55 54 56 61 62 66 79 80 82 82 81 63 67 81 72 63 52 40 32 27 24 23 22
20 21 18 23 24 24 41 58 60 50 44 29 26 19 15 15 18 18 17 16 20 31 44 48 44 44 46 53 62 64 74 72 75 67 57 54 78 81 66 58 54 36 29 25
22 30 31 24 27 36 29 18 38 46 44 40 37 25 32 22 29 31 26 22 20 22 28 42 51 52 49 49 49 48 51 62 69 66 66 64 58 54 59 73 78 68 64 50
11 15 23 28 32 24 19 29 35 36 49 51 41 35 39 40 42 32 28 29 28 24 23 22 24 31 42 46 46 46 46 47 47 52 64 67 65 62 58 54 54 61 78 78
24 19 12 10 14 16 17 26 34 54 46 55 57 55 44 45 45 49 47 51 38 35 36 42 47 46 41 41 42 40 38 37 37 41 46 53 68 67 67 68 62 54 52 54
38 30 26 21 16 14 11 16 24 30 32 35 44 49 53 66 54 50 47 38 43 55 57 50 45 41 39 39 38 36 33 32 32 30 34 43 52 56 61 65 71 75 67 60
90 84 46 33 29 25 21 19 14 8 7 13 32 37 41 52 52 57 65 74 60 52 50 50 56 60 62 62 59 50 43 46 43 36 31 31 35 40 53 64 69 77 83 80
99 98 95 84 64 41 31 28 25 20 16 9 6 10 31 35 38 45 46 58 70 74 83 81 71 66 72 74 72 72 69 67 72 73 68 66 67 69 66 69 78 81 86 87
98 98 98 98 99 96 81 44 37 30 25 20 14 9 5 10 36 49 47 48 56 64 68 72 78 83 83 80 68 64 68 68 65 63 62 62 66 69 74 84 84 76 76 78
98 99 91 100 100 100 100 95 61 47 36 29 28 25 19 9 6 16 34 46 50 51 55 57 55 53 59 66 74 73 62 54 51 52 53 58 63 66 71 76 78 86 93 93
99 99 99 99 100 100 98 96 94 98 84 57 43 30 26 26 21 13 9 10 13 19 30 40 47 50 52 54 60 63 60 57 59 61 60 61 65 71 74 80 86 93 100 100
91 91 86 85 93 93 97 100 99 100 86 70 51 42 35 29 28 28 28 26 23 17 12 9 9 10 14 25 37 48 56 64 72 83 88 89 90 92 91 87 86 84 83 81